When you browse on this site, cookies collect data to enhance your experience and personalize the content and advertising you see.
Visit our Privacy Policy to learn more. By continuing to use the site, you agree to this use of cookies and data.
  • In Schweiz
  • Länderverzeichnis
  • Für 7 Tage
  • Wassertemperatur
  • Wetterkarte
  • Widgets
  • user-avatar
    Anmelden

    Stündliche Wetter Popovo

    Heute, 15 September, Sonntag

    Zeit Temperatur Niederschläge Wind Luftdruck Luftfeuchtigkeit
    00:00 +7°C° 0 mm 3 m/S 743 mmHg 94%
    01:00 +7°C° 0 mm 3 m/S 743 mmHg 95%
    02:00 +5°C° 0 mm 3 m/S 743 mmHg 94%
    03:00 +4°C° 0 mm 3 m/S 743 mmHg 95%
    04:00 +4°C° 0 mm 3 m/S 743 mmHg 96%
    05:00 +4°C° 0 mm 3 m/S 743 mmHg 97%
    06:00 +5°C° 0 mm 3 m/S 743 mmHg 95%
    07:00 +7°C° 0 mm 3 m/S 743 mmHg 92%
    08:00 +7°C° 0 mm 3 m/S 743 mmHg 89%
    09:00 +8°C° 0 mm 4 m/S 742 mmHg 82%
    10:00 +10°C° 0 mm 4 m/S 742 mmHg 74%
    11:00 +12°C° 0 mm 4 m/S 741 mmHg 67%
    12:00 +12°C° 0 mm 5 m/S 741 mmHg 67%
    13:00 +12°C° 0 mm 5 m/S 740 mmHg 67%
    14:00 +12°C° 0 mm 5 m/S 740 mmHg 67%
    15:00 +10°C° 1.3 mm 6 m/S 739 mmHg 75%
    16:00 +9°C° 1.3 mm 6 m/S 738 mmHg 84%
    17:00 +8°C° 1.3 mm 6 m/S 737 mmHg 93%
    18:00 +8°C° 0.3 mm 6 m/S 736 mmHg 92%
    19:00 +8°C° 0.3 mm 6 m/S 735 mmHg 90%
    20:00 +8°C° 0.3 mm 6 m/S 734 mmHg 89%
    21:00 +9°C° 0 mm 6 m/S 734 mmHg 88%
    22:00 +9°C° 0 mm 6 m/S 733 mmHg 86%
    23:00 +9°C° 0 mm 6 m/S 732 mmHg 85%

    Morgen, 16 September, Montag

    Zeit Temperatur Niederschläge Wind Luftdruck Luftfeuchtigkeit
    00:00 +9°C° 0.3 mm 6 m/S 731 mmHg 87%
    01:00 +9°C° 0.3 mm 6 m/S 731 mmHg 89%
    02:00 +9°C° 0.3 mm 5 m/S 730 mmHg 92%
    03:00 +9°C° 0.1 mm 5 m/S 730 mmHg 91%
    04:00 +9°C° 0.1 mm 5 m/S 730 mmHg 91%
    05:00 +9°C° 0.1 mm 5 m/S 729 mmHg 90%
    06:00 +9°C° 0.2 mm 5 m/S 729 mmHg 89%
    07:00 +9°C° 0.2 mm 6 m/S 729 mmHg 88%
    08:00 +9°C° 0.2 mm 6 m/S 729 mmHg 86%
    09:00 +9°C° 0.3 mm 6 m/S 729 mmHg 85%
    10:00 +10°C° 0.3 mm 7 m/S 729 mmHg 83%
    11:00 +10°C° 0.3 mm 7 m/S 729 mmHg 81%
    12:00 +11°C° 0.3 mm 7 m/S 729 mmHg 79%
    13:00 +11°C° 0.3 mm 7 m/S 729 mmHg 76%
    14:00 +12°C° 0.3 mm 7 m/S 729 mmHg 74%
    15:00 +11°C° 0.2 mm 7 m/S 729 mmHg 76%
    16:00 +11°C° 0.2 mm 6 m/S 729 mmHg 77%
    17:00 +10°C° 0.2 mm 5 m/S 729 mmHg 79%
    18:00 +9°C° 0.1 mm 5 m/S 729 mmHg 82%
    19:00 +8°C° 0.1 mm 5 m/S 729 mmHg 84%
    20:00 +7°C° 0.1 mm 4 m/S 729 mmHg 87%
    21:00 +7°C° 0 mm 5 m/S 729 mmHg 86%
    22:00 +7°C° 0 mm 5 m/S 729 mmHg 86%
    23:00 +7°C° 0 mm 5 m/S 729 mmHg 85%

    übermorgen, 17 September, Dienstag

    Zeit Temperatur Niederschläge Wind Luftdruck Luftfeuchtigkeit
    00:00 +7°C° 0 mm 5 m/S 729 mmHg 86%
    01:00 +6°C° 0 mm 5 m/S 729 mmHg 87%
    02:00 +6°C° 0 mm 4 m/S 729 mmHg 88%
    03:00 +6°C° 0 mm 4 m/S 729 mmHg 89%
    04:00 +5°C° 0 mm 4 m/S 729 mmHg 89%
    05:00 +5°C° 0 mm 4 m/S 728 mmHg 90%
    06:00 +5°C° 0 mm 4 m/S 728 mmHg 87%
    07:00 +6°C° 0 mm 5 m/S 728 mmHg 84%
    08:00 +7°C° 0 mm 5 m/S 728 mmHg 81%
    09:00 +7°C° 0 mm 5 m/S 728 mmHg 79%
    10:00 +8°C° 0 mm 5 m/S 728 mmHg 78%
    11:00 +8°C° 0 mm 5 m/S 728 mmHg 76%
    12:00 +9°C° 0.1 mm 5 m/S 728 mmHg 74%
    13:00 +9°C° 0.1 mm 5 m/S 728 mmHg 72%
    14:00 +10°C° 0.1 mm 5 m/S 728 mmHg 71%
    15:00 +10°C° 0.1 mm 4 m/S 728 mmHg 74%
    16:00 +10°C° 0.1 mm 3 m/S 728 mmHg 77%
    17:00 +9°C° 0.1 mm 3 m/S 728 mmHg 80%
    18:00 +8°C° 0 mm 2 m/S 728 mmHg 85%
    19:00 +7°C° 0 mm 2 m/S 728 mmHg 90%
    20:00 +6°C° 0 mm 2 m/S 728 mmHg 94%
    21:00 +5°C° 0 mm 2 m/S 727 mmHg 95%
    22:00 +5°C° 0 mm 2 m/S 727 mmHg 95%
    23:00 +4°C° 0 mm 2 m/S 727 mmHg 96%

    18 September, Mittwoch

    Zeit Temperatur Niederschläge Wind Luftdruck Luftfeuchtigkeit
    00:00 +4°C° 0 mm 2 m/S 727 mmHg 96%
    01:00 +4°C° 0 mm 2 m/S 727 mmHg 96%
    02:00 +4°C° 0 mm 1 m/S 726 mmHg 96%
    03:00 +5°C° 0.1 mm 1 m/S 726 mmHg 97%
    04:00 +5°C° 0.1 mm 1 m/S 726 mmHg 97%
    05:00 +5°C° 0.1 mm 1 m/S 726 mmHg 97%
    06:00 +6°C° 0.1 mm 1 m/S 726 mmHg 95%
    07:00 +7°C° 0.1 mm 1 m/S 726 mmHg 92%
    08:00 +7°C° 0.1 mm 1 m/S 726 mmHg 90%
    09:00 +9°C° 0.2 mm 1 m/S 727 mmHg 84%
    10:00 +9°C° 0.2 mm 2 m/S 727 mmHg 79%
    11:00 +10°C° 0.2 mm 2 m/S 728 mmHg 74%
    12:00 +10°C° 0.6 mm 3 m/S 728 mmHg 75%
    13:00 +10°C° 0.6 mm 3 m/S 728 mmHg 77%
    14:00 +10°C° 0.6 mm 4 m/S 729 mmHg 79%
    15:00 +10°C° 0.5 mm 3 m/S 729 mmHg 82%
    16:00 +9°C° 0.5 mm 3 m/S 730 mmHg 86%
    17:00 +8°C° 0.5 mm 3 m/S 730 mmHg 89%
    18:00 +7°C° 0.1 mm 3 m/S 731 mmHg 91%
    19:00 +7°C° 0.1 mm 3 m/S 732 mmHg 93%
    20:00 +6°C° 0.1 mm 2 m/S 732 mmHg 95%
    21:00 +5°C° 0 mm 2 m/S 733 mmHg 96%
    22:00 +5°C° 0 mm 2 m/S 733 mmHg 96%
    23:00 +4°C° 0 mm 2 m/S 734 mmHg 97%

    19 September, Donnerstag

    Zeit Temperatur Niederschläge Wind Luftdruck Luftfeuchtigkeit
    00:00 +4°C° 0 mm 2 m/S 734 mmHg 97%
    01:00 +3°C° 0 mm 2 m/S 734 mmHg 97%
    02:00 +3°C° 0 mm 2 m/S 735 mmHg 97%
    03:00 +4°C° 0 mm 1 m/S 735 mmHg 97%
    04:00 +4°C° 0 mm 1 m/S 736 mmHg 97%
    05:00 +5°C° 0 mm 1 m/S 736 mmHg 97%
    06:00 +5°C° 0 mm 1 m/S 736 mmHg 96%
    07:00 +5°C° 0 mm 2 m/S 737 mmHg 94%
    08:00 +5°C° 0 mm 2 m/S 737 mmHg 93%
    09:00 +6°C° 0.1 mm 2 m/S 737 mmHg 88%
    10:00 +7°C° 0.1 mm 2 m/S 738 mmHg 83%
    11:00 +7°C° 0.1 mm 2 m/S 738 mmHg 78%
    12:00 +8°C° 0.2 mm 2 m/S 738 mmHg 77%
    13:00 +8°C° 0.2 mm 2 m/S 738 mmHg 75%
    14:00 +8°C° 0.2 mm 3 m/S 738 mmHg 74%
    15:00 +7°C° 0.1 mm 2 m/S 738 mmHg 75%
    16:00 +7°C° 0.1 mm 2 m/S 738 mmHg 77%
    17:00 +7°C° 0.1 mm 2 m/S 739 mmHg 78%
    18:00 +5°C° 0 mm 2 m/S 739 mmHg 83%
    19:00 +4°C° 0 mm 2 m/S 739 mmHg 87%
    20:00 +4°C° 0 mm 1 m/S 739 mmHg 91%
    21:00 +3°C° 0 mm 1 m/S 740 mmHg 92%
    22:00 +3°C° 0 mm 1 m/S 740 mmHg 93%
    23:00 +3°C° 0 mm 1 m/S 740 mmHg 95%

    20 September, Freitag

    Zeit Temperatur Niederschläge Wind Luftdruck Luftfeuchtigkeit
    00:00 +2°C° 0 mm 1 m/S 740 mmHg 95%
    01:00 +2°C° 0 mm 1 m/S 740 mmHg 96%
    02:00 +2°C° 0 mm 1 m/S 740 mmHg 96%
    03:00 +2°C° 0 mm 1 m/S 740 mmHg 96%
    04:00 +1°C° 0 mm 1 m/S 741 mmHg 96%
    05:00 -1°C° 0 mm 2 m/S 741 mmHg 95%
    06:00 +1°C° 0 mm 2 m/S 741 mmHg 89%
    07:00 +2°C° 0 mm 2 m/S 741 mmHg 83%
    08:00 +4°C° 0 mm 2 m/S 741 mmHg 76%
    09:00 +5°C° 0 mm 2 m/S 742 mmHg 68%
    10:00 +7°C° 0 mm 2 m/S 742 mmHg 59%
    11:00 +8°C° 0 mm 2 m/S 743 mmHg 50%
    12:00 +9°C° 0 mm 2 m/S 742 mmHg 49%
    13:00 +9°C° 0 mm 2 m/S 742 mmHg 47%
    14:00 +9°C° 0 mm 3 m/S 742 mmHg 46%
    15:00 +8°C° 0.1 mm 2 m/S 742 mmHg 54%
    16:00 +7°C° 0.1 mm 2 m/S 743 mmHg 63%
    17:00 +6°C° 0.1 mm 2 m/S 743 mmHg 71%
    18:00 +5°C° 0 mm 2 m/S 743 mmHg 78%
    19:00 +4°C° 0 mm 2 m/S 743 mmHg 84%
    20:00 +2°C° 0 mm 2 m/S 744 mmHg 91%
    21:00 +2°C° 0 mm 2 m/S 744 mmHg 92%
    22:00 +1°C° 0 mm 2 m/S 744 mmHg 93%
    23:00 +2°C° 0 mm 1 m/S 744 mmHg 94%
    Mehr zeigen